Lancaster, PA

8:46 PM EDT on September 19, 2017 (GMT -0400)
Lancaster

Weather History for KLNS - May, 2013

Change the Weather History Date:

Tuesday, May 14, 2013

  Actual Average Record
Temperature  
Mean Temperature 44 °F -  
Max Temperature 59 °F 74 °F 88 °F (1991)
Min Temperature 32 °F 49 °F 32 °F (2013)
Degree Days  
Heating Degree Days 20    
Moisture  
Dew Point 31 °F    
Average Humidity 55    
Maximum Humidity 86    
Minimum Humidity 29    
Precipitation  
Precipitation 0.04 in - - ()
Sea Level Pressure  
Sea Level Pressure 30.13 in    
Wind  
Wind Speed 6 mph (WNW)    
Max Wind Speed 13 mph    
Max Gust Speed 17 mph    
Visibility 10 miles    
Events Rain    
Averages and records for this station are not official NWS values.
T = Trace of Precipitation, MM = Missing Value Source: NWS Daily Summary

Daily Weather History Graph

Daily Weather History Graph

Search for Another Location

Airport or City:

Trip Planner

Search our weather history database for the weather conditions in past years. The results will help you decide how hot, cold, wet, or windy it might be!

Date:

Astronomy

May. 14, 2013 Rise Set
Actual Time 5:50 AM EDT 8:13 PM EDT
Civil Twilight 5:19 AM EDT 8:44 PM EDT
Nautical Twilight 4:41 AM EDT 9:22 PM EDT
Astronomical Twilight 4:00 AM EDT 10:04 PM EDT
Moon 9:28 AM EDT (5/14) 11:59 PM EDT (5/14)
Length of Visible Light 15h 24m
Length of Day
14h 22m
Waxing Crescent, 19% of the Moon is Illuminated
May 14
Waxing Crescent
May 18
First Quarter
May 25
Full
May 31
Last Quarter
Jun 8
New

Hourly Weather History & Observations

Time (EDT) Temp. Windchill Dew Point Humidity Pressure Visibility Wind Dir Wind Speed Gust Speed Precip Events Conditions
12:53 AM 39.0 °F 34.8 °F 27.0 °F 62% 30.16 in 10.0 mi North 5.8 mph - N/A   Clear
1:53 AM 37.0 °F 33.3 °F 27.0 °F 67% 30.17 in 10.0 mi NW 4.6 mph - N/A   Clear
2:53 AM 36.0 °F 31.1 °F 27.0 °F 70% 30.16 in 10.0 mi NW 5.8 mph - N/A   Clear
3:53 AM 33.1 °F 28.7 °F 27.0 °F 78% 30.17 in 10.0 mi WNW 4.6 mph - N/A   Clear
4:53 AM 33.1 °F 27.7 °F 27.0 °F 78% 30.17 in 10.0 mi West 5.8 mph - N/A   Clear
5:53 AM 32.0 °F 26.4 °F 27.0 °F 82% 30.17 in 8.0 mi West 5.8 mph - N/A   Clear
6:53 AM 36.0 °F 32.1 °F 28.9 °F 76% 30.19 in 8.0 mi West 4.6 mph - N/A   Clear
7:53 AM 42.1 °F 37.1 °F 30.9 °F 65% 30.19 in 10.0 mi WNW 8.1 mph - N/A   Clear
8:53 AM 46.9 °F - 32.0 °F 56% 30.20 in 10.0 mi West 6.9 mph - N/A   Clear
9:53 AM 50.0 °F - 30.0 °F 46% 30.18 in 10.0 mi NNW 8.1 mph - N/A   Clear
10:53 AM 51.1 °F - 28.0 °F 41% 30.17 in 10.0 mi NW 12.7 mph - N/A   Clear
11:53 AM - - - N/A% 30.15 in - NW 11.5 mph 17.3 mph N/A   Unknown
12:53 PM 55.0 °F - 30.9 °F 40% 30.15 in 10.0 mi North - - N/A   Unknown
1:53 PM 55.9 °F - 30.0 °F 37% 30.14 in 10.0 mi NW 10.4 mph - N/A   Clear
2:53 PM 57.0 °F - 28.9 °F 34% 30.11 in 10.0 mi WSW 8.1 mph - N/A   Clear
3:53 PM 57.0 °F - 28.9 °F 34% 30.10 in 10.0 mi West 10.4 mph - N/A   Clear
4:53 PM 57.0 °F - 25.0 °F 29% 30.07 in 10.0 mi WNW 9.2 mph - N/A   Scattered Clouds
5:53 PM 55.9 °F - 30.0 °F 37% 30.07 in 10.0 mi WNW 5.8 mph - N/A   Clear
6:53 PM 55.9 °F - 28.9 °F 36% 30.06 in 10.0 mi Calm Calm - N/A   Partly Cloudy
7:53 PM 55.0 °F - 30.0 °F 38% 30.04 in 10.0 mi South 3.5 mph - N/A   Mostly Cloudy
8:53 PM 55.0 °F - 30.0 °F 38% 30.05 in 10.0 mi WSW 5.8 mph - N/A   Scattered Clouds
9:53 PM 53.1 °F - 39.9 °F 61% 30.08 in 10.0 mi West 6.9 mph - 0.00 in Rain Light Rain
10:53 PM 50.0 °F - 44.1 °F 80% 30.09 in 10.0 mi Calm Calm - 0.01 in Rain Light Rain
11:53 PM 50.0 °F - 46.0 °F 86% 30.07 in 10.0 mi SE 3.5 mph - 0.03 in   Overcast